Location: Shepherdstown, WV
(39.4326°N, 77.8042°W)
Time: 06:28:32
(UTC-04:00)

Vanguard 1 - Pass Details

Date: 03 August 2021
Orbit: 652 x 3831 km, 34.3° (Epoch: 24 September)

Event Time Altitude Azimuth Distance (km) Brightness Sun altitude
Rises 14:12:59 0° 268° (W) 3,318 13.0 64.8°
Reaches altitude 10° 14:15:04 10° 263° (W) 2,569 12.6 64.6°
Maximum altitude 14:20:54 52° 188° (S) 1,494 12.8 63.9°
Drops below altitude 10° 14:31:09 10° 116° (ESE) 4,415 13.4 62.7°
Sets 14:35:54 0° 112° (ESE) 5,953 14.0 62.1°
